Location: Lourdes
(43.1000°N, 0.0500°W)
Time: 06:05:43
(UTC+00:00)

Meteor 1-4 Rocket - Pass Details

Date: 30 November 2020
Orbit: 449 x 500 km, 81.2° (Epoch: 27 January)

Event Time Altitude Azimuth Distance (km) Brightness Sun altitude
Rises 17:55:09 0° 194° (SSW) 2,528 6.6 -15.8°
Reaches altitude 10° 17:57:15 10° 197° (SSW) 1,645 5.7 -16.1°
Maximum altitude 18:00:51 69° 281° (W) 511 2.8 -16.8°
Enters shadow 18:04:19 10° 5° (N) 1,602 5.0 -17.4°
